^^
WesterhopeWX Station Historical Data
 
Daily Summary for June 26, 2019 Units:  Metric    English   Both
Daily Weekly Monthly Yearly Custom
  Current: High: Low: Average:
Temperature: 12.8 °C 17.5 °C 9.5 °C 12.4 °C
Dew Point: 8.1 °C 11.1 °C 8.1 °C 9.4 °C
Humidity: 73% 95% 62% 83%
Wind Speed: 0.0km/h 6.4km/h 0.0km/h 1.6km/h
Wind Gust: 1.6km/h 12.9km/h - -
WindCalm - - ENE
Pressure: 1031.0 hPa 1031.0 hPa 1026.6 hPa -
Precipitation: 0.3 mm      
Historical Graphs
 
 
Tabular Data for June 26, 2019
Time Temperature Dew Point Pressure Wind Wind Speed Wind Gust Humidity Rainfall Rate (Hourly) solar
00:04 10.6 °C 9.7 °C 1026.6 hPa North 1.4 km/h 6.4 km/h 94% 0.0 mm 0.00 W/m2
00:09 10.6 °C 9.7 °C 1026.6 hPa NNE 3.2 km/h 4.8 km/h 94% 0.0 mm 0.00 W/m2
00:14 10.6 °C 9.7 °C 1026.6 hPa North 3.2 km/h 3.2 km/h 94% 0.0 mm 0.00 W/m2
00:19 10.6 °C 9.8 °C 1026.6 hPa NNE 1.4 km/h 4.8 km/h 95% 0.0 mm 0.00 W/m2
00:24 10.6 °C 9.8 °C 1026.6 hPa Calm   8.0 km/h 95% 0.0 mm 0.00 W/m2
00:29 10.6 °C 9.7 °C 1026.6 hPa North 1.4 km/h 3.2 km/h 94% 0.0 mm 0.00 W/m2
00:34 10.6 °C 9.8 °C 1026.6 hPa NNE 3.2 km/h 9.7 km/h 95% 0.0 mm 0.00 W/m2
00:39 10.5 °C 9.7 °C 1026.6 hPa NE 4.7 km/h 4.8 km/h 95% 0.0 mm 0.00 W/m2
00:44 10.5 °C 9.7 °C 1026.6 hPa Calm   4.8 km/h 95% 0.0 mm 0.00 W/m2
00:49 10.5 °C 9.7 °C 1026.6 hPa NNE 1.4 km/h 4.8 km/h 95% 0.0 mm 0.00 W/m2
00:54 10.4 °C 9.6 °C 1026.6 hPa NE 6.4 km/h 12.9 km/h 95% 0.0 mm 0.00 W/m2
00:59 10.4 °C 9.6 °C 1026.6 hPa Calm   4.8 km/h 95% 0.0 mm 0.00 W/m2
01:04 10.4 °C 9.6 °C 1026.6 hPa Calm   4.8 km/h 95% 0.0 mm 0.00 W/m2
01:09 10.3 °C 9.5 °C 1026.6 hPa NNE 1.4 km/h 4.8 km/h 95% 0.0 mm 0.00 W/m2
01:14 10.4 °C 9.6 °C 1026.6 hPa Calm   4.8 km/h 95% 0.0 mm 0.00 W/m2
01:19 10.4 °C 9.6 °C 1026.6 hPa NNE 3.2 km/h 4.8 km/h 95% 0.0 mm 0.00 W/m2
01:24 10.4 °C 9.6 °C 1026.6 hPa NE 3.2 km/h 8.0 km/h 95% 0.0 mm 0.00 W/m2
01:29 10.4 °C 9.6 °C 1026.6 hPa NE 1.4 km/h 4.8 km/h 95% 0.0 mm 0.00 W/m2
01:34 10.4 °C 9.6 °C 1026.6 hPa Calm   3.2 km/h 95% 0.0 mm 0.00 W/m2
01:39 10.4 °C 9.6 °C 1026.6 hPa NNE 4.7 km/h 4.8 km/h 95% 0.0 mm 0.00 W/m2
01:44 10.3 °C 9.5 °C 1026.6 hPa NE 6.4 km/h 6.4 km/h 95% 0.0 mm 0.00 W/m2
01:49 10.3 °C 9.5 °C 1026.6 hPa ENE 3.2 km/h 8.0 km/h 95% 0.0 mm 0.00 W/m2
01:54 10.3 °C 9.5 °C 1026.6 hPa NNE 4.7 km/h 4.8 km/h 95% 0.0 mm 0.00 W/m2
01:59 10.3 °C 9.4 °C 1026.6 hPa NNW 1.4 km/h 6.4 km/h 94% 0.0 mm 0.00 W/m2
02:04 10.2 °C 9.3 °C 1026.6 hPa NE 3.2 km/h 3.2 km/h 94% 0.0 mm 0.00 W/m2
02:09 10.2 °C 9.3 °C 1026.6 hPa Calm   4.8 km/h 94% 0.0 mm 0.00 W/m2
02:14 10.2 °C 9.4 °C 1026.6 hPa Calm   4.8 km/h 95% 0.0 mm 0.00 W/m2
02:19 10.2 °C 9.4 °C 1027.0 hPa Calm   6.4 km/h 95% 0.0 mm 0.00 W/m2
02:24 10.2 °C 9.4 °C 1027.0 hPa ENE 3.2 km/h 4.8 km/h 95% 0.0 mm 0.00 W/m2
02:29 10.2 °C 9.4 °C 1027.0 hPa Calm   4.8 km/h 95% 0.0 mm 0.00 W/m2
02:34 10.2 °C 9.4 °C 1027.0 hPa Calm   3.2 km/h 95% 0.0 mm 0.00 W/m2
02:39 10.2 °C 9.4 °C 1027.0 hPa NE 3.2 km/h 4.8 km/h 95% 0.0 mm 0.00 W/m2
02:44 10.1 °C 9.3 °C 1027.0 hPa NNW 3.2 km/h 4.8 km/h 95% 0.0 mm 0.00 W/m2
02:49 10.1 °C 9.3 °C 1027.0 hPa NE 1.4 km/h 3.2 km/h 95% 0.0 mm 0.00 W/m2
02:54 10.1 °C 9.3 °C 1027.0 hPa ENE 3.2 km/h 4.8 km/h 95% 0.0 mm 0.00 W/m2
02:59 10.1 °C 9.3 °C 1027.0 hPa North 3.2 km/h 3.2 km/h 95% 0.0 mm 0.00 W/m2
03:04 10.1 °C 9.3 °C 1027.0 hPa North 1.4 km/h 4.8 km/h 95% 0.0 mm 0.00 W/m2
03:09 10.1 °C 9.3 °C 1027.0 hPa NE 1.4 km/h 3.2 km/h 95% 0.0 mm 0.00 W/m2
03:14 10.0 °C 9.2 °C 1027.0 hPa NNE 1.4 km/h 4.8 km/h 95% 0.0 mm 0.00 W/m2
03:19 10.0 °C 9.1 °C 1027.0 hPa NNE 4.7 km/h 4.8 km/h 94% 0.0 mm 0.00 W/m2
03:24 9.9 °C 9.1 °C 1027.0 hPa NNW 1.4 km/h 4.8 km/h 95% 0.0 mm 0.00 W/m2
03:29 9.9 °C 9.1 °C 1027.3 hPa NNW 1.4 km/h 3.2 km/h 95% 0.0 mm 0.00 W/m2
03:34 9.9 °C 9.1 °C 1027.3 hPa North 1.4 km/h 4.8 km/h 95% 0.0 mm 0.00 W/m2
03:39 9.9 °C 9.1 °C 1027.3 hPa NNE 1.4 km/h 3.2 km/h 95% 0.0 mm 0.00 W/m2
03:44 9.9 °C 9.1 °C 1027.3 hPa North 3.2 km/h 4.8 km/h 95% 0.0 mm 0.00 W/m2
03:49 9.8 °C 9.0 °C 1027.3 hPa North 3.2 km/h 6.4 km/h 95% 0.0 mm 0.00 W/m2
03:54 9.8 °C 9.0 °C 1027.3 hPa North 3.2 km/h 3.2 km/h 95% 0.0 mm 0.00 W/m2
03:59 9.8 °C 9.0 °C 1027.3 hPa NNE 3.2 km/h 4.8 km/h 95% 0.0 mm 0.00 W/m2
04:04 9.7 °C 8.9 °C 1027.3 hPa NE 3.2 km/h 4.8 km/h 95% 0.0 mm 0.00 W/m2
04:09 9.7 °C 8.9 °C 1027.7 hPa NNW 1.4 km/h 4.8 km/h 95% 0.0 mm 0.00 W/m2
04:14 9.7 °C 8.9 °C 1027.7 hPa NE 1.4 km/h 1.6 km/h 95% 0.0 mm 0.00 W/m2
04:19 9.7 °C 8.9 °C 1027.7 hPa North 3.2 km/h 3.2 km/h 95% 0.0 mm 0.00 W/m2
04:24 9.7 °C 8.9 °C 1027.7 hPa NNE 1.4 km/h 4.8 km/h 95% 0.0 mm 0.00 W/m2
04:29 9.8 °C 9.0 °C 1027.7 hPa Calm   3.2 km/h 95% 0.0 mm 0.00 W/m2
04:34 9.7 °C 8.9 °C 1027.7 hPa NNE 1.4 km/h 3.2 km/h 95% 0.0 mm 0.00 W/m2
04:39 9.7 °C 8.9 °C 1027.7 hPa Calm   8.0 km/h 95% 0.0 mm 0.00 W/m2
04:44 9.7 °C 8.9 °C 1028.0 hPa Calm   4.8 km/h 95% 0.0 mm 0.00 W/m2
04:49 9.7 °C 8.9 °C 1028.0 hPa NE 3.2 km/h 8.0 km/h 95% 0.0 mm 0.00 W/m2
04:54 9.7 °C 8.9 °C 1028.0 hPa Calm   1.6 km/h 95% 0.0 mm 0.00 W/m2
04:59 9.7 °C 8.9 °C 1028.0 hPa NNE 4.7 km/h 4.8 km/h 95% 0.0 mm 0.00 W/m2
05:04 9.7 °C 8.9 °C 1028.0 hPa North 3.2 km/h 4.8 km/h 95% 0.3 mm 0.00 W/m2
05:09 9.7 °C 8.9 °C 1028.0 hPa North 1.4 km/h 3.2 km/h 95% 0.3 mm 0.00 W/m2
05:14 9.7 °C 8.9 °C 1028.3 hPa Calm   4.8 km/h 95% 0.3 mm 5.00 W/m2
05:19 9.7 °C 8.9 °C 1028.3 hPa Calm   6.4 km/h 95% 0.3 mm 5.00 W/m2
05:24 9.7 °C 8.9 °C 1028.0 hPa Calm   3.2 km/h 95% 0.3 mm 7.00 W/m2
05:29 9.7 °C 8.9 °C 1028.0 hPa NE 3.2 km/h 4.8 km/h 95% 0.3 mm 11.00 W/m2
05:34 9.7 °C 8.9 °C 1028.0 hPa ENE 4.7 km/h 4.8 km/h 95% 0.3 mm 9.00 W/m2
05:39 9.7 °C 8.9 °C 1028.0 hPa North 4.7 km/h 4.8 km/h 95% 0.3 mm 11.00 W/m2
05:44 9.6 °C 8.8 °C 1028.0 hPa NE 3.2 km/h 4.8 km/h 95% 0.3 mm 12.00 W/m2
05:49 9.6 °C 8.8 °C 1028.0 hPa NE 1.4 km/h 6.4 km/h 95% 0.3 mm 14.00 W/m2
05:54 9.6 °C 8.8 °C 1028.0 hPa NNE 1.4 km/h 4.8 km/h 95% 0.3 mm 14.00 W/m2
05:59 9.6 °C 8.8 °C 1028.3 hPa Calm   3.2 km/h 95% 0.3 mm 16.00 W/m2
06:04 9.6 °C 8.8 °C 1028.3 hPa Calm   4.8 km/h 95% 0.0 mm 19.00 W/m2
06:09 9.6 °C 8.8 °C 1028.3 hPa NE 3.2 km/h 3.2 km/h 95% 0.0 mm 18.00 W/m2
06:14 9.7 °C 8.9 °C 1028.3 hPa NE 3.2 km/h 3.2 km/h 95% 0.0 mm 11.00 W/m2
06:19 9.6 °C 8.8 °C 1028.3 hPa Calm   6.4 km/h 95% 0.0 mm 14.00 W/m2
06:24 9.6 °C 8.8 °C 1028.7 hPa NNE 1.4 km/h 4.8 km/h 95% 0.0 mm 25.00 W/m2
06:29 9.6 °C 8.8 °C 1028.7 hPa NNW 1.4 km/h 3.2 km/h 95% 0.0 mm 26.00 W/m2
06:34 9.6 °C 8.8 °C 1028.7 hPa North 3.2 km/h 3.2 km/h 95% 0.0 mm 25.00 W/m2
06:39 9.6 °C 8.8 °C 1028.7 hPa Calm   1.6 km/h 95% 0.0 mm 28.00 W/m2
06:44 9.6 °C 8.8 °C 1028.7 hPa NNE 1.4 km/h 3.2 km/h 95% 0.0 mm 19.00 W/m2
06:49 9.7 °C 8.9 °C 1028.7 hPa North 1.4 km/h 4.8 km/h 95% 0.0 mm 25.00 W/m2
06:54 9.7 °C 8.9 °C 1028.7 hPa NNW 1.4 km/h 3.2 km/h 95% 0.0 mm 32.00 W/m2
06:59 9.6 °C 8.8 °C 1028.7 hPa NNE 1.4 km/h 1.6 km/h 95% 0.0 mm 32.00 W/m2
07:04 9.6 °C 8.8 °C 1028.7 hPa North 1.4 km/h 4.8 km/h 95% 0.0 mm 37.00 W/m2
07:09 9.6 °C 8.8 °C 1028.7 hPa Calm   3.2 km/h 95% 0.0 mm 37.00 W/m2
07:14 9.6 °C 8.8 °C 1028.7 hPa Calm   3.2 km/h 95% 0.0 mm 37.00 W/m2
07:19 9.6 °C 8.8 °C 1028.7 hPa Calm   6.4 km/h 95% 0.0 mm 39.00 W/m2
07:24 9.5 °C 8.7 °C 1028.7 hPa NE 1.4 km/h 4.8 km/h 95% 0.0 mm 54.00 W/m2
07:29 9.5 °C 8.7 °C 1028.7 hPa North 1.4 km/h 3.2 km/h 95% 0.0 mm 62.00 W/m2
07:34 9.6 °C 8.8 °C 1028.7 hPa NE 3.2 km/h 4.8 km/h 95% 0.0 mm 67.00 W/m2
07:39 9.6 °C 8.8 °C 1028.7 hPa North 1.4 km/h 3.2 km/h 95% 0.0 mm 77.00 W/m2
07:44 9.6 °C 8.8 °C 1029.0 hPa North 1.4 km/h 4.8 km/h 95% 0.0 mm 79.00 W/m2
07:49 9.7 °C 8.9 °C 1029.0 hPa NE 1.4 km/h 3.2 km/h 95% 0.0 mm 90.00 W/m2
07:54 9.7 °C 8.9 °C 1029.3 hPa Calm   3.2 km/h 95% 0.0 mm 62.00 W/m2
07:59 9.7 °C 8.9 °C 1029.3 hPa Calm   3.2 km/h 95% 0.0 mm 51.00 W/m2
08:04 9.7 °C 8.9 °C 1029.3 hPa Calm   4.8 km/h 95% 0.0 mm 56.00 W/m2
08:09 9.7 °C 8.9 °C 1029.3 hPa Calm   1.6 km/h 95% 0.0 mm 63.00 W/m2
08:14 9.6 °C 8.8 °C 1029.3 hPa NNE 1.4 km/h 3.2 km/h 95% 0.0 mm 81.00 W/m2
08:19 9.7 °C 8.8 °C 1029.3 hPa NE 3.2 km/h 3.2 km/h 94% 0.0 mm 79.00 W/m2
08:24 9.7 °C 8.9 °C 1029.3 hPa NE 1.4 km/h 4.8 km/h 95% 0.0 mm 72.00 W/m2
08:29 9.7 °C 8.9 °C 1029.7 hPa ENE 4.7 km/h 4.8 km/h 95% 0.0 mm 81.00 W/m2
08:34 9.7 °C 8.9 °C 1029.7 hPa Calm   3.2 km/h 95% 0.0 mm 86.00 W/m2
08:39 9.7 °C 8.8 °C 1029.7 hPa NNE 1.4 km/h 4.8 km/h 94% 0.0 mm 83.00 W/m2
08:44 9.8 °C 8.9 °C 1030.0 hPa Calm   4.8 km/h 94% 0.0 mm 88.00 W/m2
08:49 9.8 °C 8.9 °C 1030.0 hPa East 1.4 km/h 1.6 km/h 94% 0.0 mm 86.00 W/m2
08:54 9.9 °C 9.0 °C 1030.0 hPa NNE 3.2 km/h 3.2 km/h 94% 0.0 mm 107.00 W/m2
08:59 9.9 °C 9.0 °C 1030.0 hPa NE 4.7 km/h 4.8 km/h 94% 0.0 mm 104.00 W/m2
09:04 10.0 °C 9.1 °C 1030.0 hPa ESE 1.4 km/h 6.4 km/h 94% 0.0 mm 121.00 W/m2
09:09 9.9 °C 9.0 °C 1030.0 hPa ENE 3.2 km/h 6.4 km/h 94% 0.0 mm 109.00 W/m2
09:14 10.0 °C 9.1 °C 1030.0 hPa NNE 3.2 km/h 4.8 km/h 94% 0.0 mm 148.00 W/m2
09:19 10.1 °C 9.0 °C 1030.0 hPa East 3.2 km/h 6.4 km/h 93% 0.0 mm 130.00 W/m2
09:24 10.1 °C 9.0 °C 1030.4 hPa ENE 6.4 km/h 6.4 km/h 93% 0.0 mm 116.00 W/m2
09:29 10.1 °C 9.0 °C 1030.4 hPa NE 1.4 km/h 3.2 km/h 93% 0.0 mm 114.00 W/m2
09:34 10.2 °C 9.1 °C 1030.4 hPa NNE 1.4 km/h 4.8 km/h 93% 0.0 mm 107.00 W/m2
09:39 10.3 °C 9.2 °C 1030.4 hPa Calm   3.2 km/h 93% 0.0 mm 111.00 W/m2
09:44 10.4 °C 9.2 °C 1030.4 hPa Calm   1.6 km/h 92% 0.0 mm 114.00 W/m2
09:49 10.4 °C 9.2 °C 1030.4 hPa Calm   4.8 km/h 92% 0.0 mm 105.00 W/m2
09:54 10.4 °C 9.2 °C 1030.4 hPa Calm   3.2 km/h 92% 0.0 mm 105.00 W/m2
09:59 10.5 °C 9.3 °C 1030.4 hPa ENE 1.4 km/h 9.7 km/h 92% 0.0 mm 135.00 W/m2
10:04 10.5 °C 9.1 °C 1030.4 hPa Calm     91% 0.0 mm 132.00 W/m2
10:09 10.6 °C 9.2 °C 1030.7 hPa Calm   3.2 km/h 91% 0.0 mm 148.00 W/m2
10:14 10.7 °C 9.3 °C 1030.7 hPa NE 1.4 km/h 3.2 km/h 91% 0.0 mm 148.00 W/m2
10:19 10.7 °C 9.1 °C 1030.7 hPa SE 4.7 km/h 11.3 km/h 90% 0.0 mm 163.00 W/m2
10:24 10.6 °C 8.9 °C 1030.7 hPa NE 1.4 km/h 4.8 km/h 89% 0.0 mm 188.00 W/m2
10:29 10.7 °C 9.0 °C 1030.7 hPa NE 1.4 km/h 4.8 km/h 89% 0.0 mm 178.00 W/m2
10:34 10.8 °C 8.9 °C 1030.7 hPa NNE 1.4 km/h 3.2 km/h 88% 0.0 mm 171.00 W/m2
10:39 10.8 °C 8.9 °C 1030.7 hPa Calm   3.2 km/h 88% 0.0 mm 165.00 W/m2
10:44 10.9 °C 8.8 °C 1030.7 hPa ENE 4.7 km/h 6.4 km/h 87% 0.0 mm 165.00 W/m2
10:49 10.9 °C 8.8 °C 1030.7 hPa ENE 1.4 km/h 6.4 km/h 87% 0.0 mm 169.00 W/m2
10:54 11.1 °C 9.0 °C 1030.7 hPa ENE 1.4 km/h 6.4 km/h 87% 0.0 mm 183.00 W/m2
10:59 11.1 °C 9.0 °C 1030.7 hPa NNE 1.4 km/h 1.6 km/h 87% 0.0 mm 193.00 W/m2
11:04 11.2 °C 9.1 °C 1030.7 hPa Calm   3.2 km/h 87% 0.0 mm 188.00 W/m2
11:09 11.2 °C 8.9 °C 1030.7 hPa NE 1.4 km/h 3.2 km/h 86% 0.0 mm 192.00 W/m2
11:14 11.3 °C 9.0 °C 1030.7 hPa North 1.4 km/h 3.2 km/h 86% 0.0 mm 218.00 W/m2
11:19 11.4 °C 9.1 °C 1031.0 hPa Calm   3.2 km/h 86% 0.0 mm 221.00 W/m2
11:24 11.4 °C 9.0 °C 1031.0 hPa NE 1.4 km/h 6.4 km/h 85% 0.0 mm 281.00 W/m2
11:29 11.6 °C 9.2 °C 1031.0 hPa Calm   1.6 km/h 85% 0.0 mm 257.00 W/m2
11:34 11.7 °C 9.3 °C 1031.0 hPa NNW 3.2 km/h 3.2 km/h 85% 0.0 mm 230.00 W/m2
11:39 11.8 °C 9.2 °C 1031.0 hPa Calm   6.4 km/h 84% 0.0 mm 239.00 W/m2
11:44 11.8 °C 9.0 °C 1031.0 hPa Calm   4.8 km/h 83% 0.0 mm 237.00 W/m2
11:49 11.9 °C 9.1 °C 1031.0 hPa NE 3.2 km/h 4.8 km/h 83% 0.0 mm 257.00 W/m2
11:54 11.9 °C 9.1 °C 1031.0 hPa Calm   4.8 km/h 83% 0.0 mm 313.00 W/m2
11:59 12.1 °C 9.3 °C 1031.0 hPa ENE 1.4 km/h 3.2 km/h 83% 0.0 mm 315.00 W/m2
12:04 12.2 °C 9.2 °C 1031.0 hPa NNE 1.4 km/h 9.7 km/h 82% 0.0 mm 323.00 W/m2
12:09 12.2 °C 9.2 °C 1031.0 hPa NE 3.2 km/h 4.8 km/h 82% 0.0 mm 325.00 W/m2
12:14 12.3 °C 9.3 °C 1031.0 hPa NNE 1.4 km/h 3.2 km/h 82% 0.0 mm 341.00 W/m2
12:19 12.4 °C 9.6 °C 1031.0 hPa NNE 3.2 km/h 4.8 km/h 83% 0.0 mm 315.00 W/m2
12:24 12.4 °C 9.2 °C 1031.0 hPa Calm   4.8 km/h 81% 0.0 mm 281.00 W/m2
12:29 12.6 °C 9.6 °C 1031.0 hPa NE 1.4 km/h 3.2 km/h 82% 0.0 mm 283.00 W/m2
12:34 12.7 °C 9.7 °C 1031.0 hPa NNE 1.4 km/h 4.8 km/h 82% 0.0 mm 341.00 W/m2
12:39 12.8 °C 9.4 °C 1031.0 hPa Calm   3.2 km/h 80% 0.0 mm 345.00 W/m2
12:44 12.8 °C 9.6 °C 1031.0 hPa Calm   1.6 km/h 81% 0.0 mm 390.00 W/m2
12:49 13.1 °C 9.9 °C 1031.0 hPa Calm   1.6 km/h 81% 0.0 mm 378.00 W/m2
12:54 13.3 °C 9.9 °C 1031.0 hPa North 3.2 km/h 3.2 km/h 80% 0.0 mm 357.00 W/m2
12:59 13.4 °C 9.8 °C 1031.0 hPa NNE 3.2 km/h 3.2 km/h 79% 0.0 mm 364.00 W/m2
13:04 13.6 °C 10.0 °C 1031.0 hPa North 1.4 km/h 4.8 km/h 79% 0.0 mm 352.00 W/m2
13:09 13.9 °C 10.3 °C 1031.0 hPa Calm     79% 0.0 mm 411.00 W/m2
13:14 13.6 °C 9.4 °C 1031.0 hPa NNE 3.2 km/h 4.8 km/h 76% 0.0 mm 387.00 W/m2
13:19 14.2 °C 10.4 °C 1030.7 hPa NNE 1.4 km/h 3.2 km/h 78% 0.0 mm 457.00 W/m2
13:24 13.9 °C 9.7 °C 1031.0 hPa Calm   4.8 km/h 76% 0.0 mm 417.00 W/m2
13:29 14.3 °C 10.5 °C 1030.7 hPa Calm   3.2 km/h 78% 0.0 mm 373.00 W/m2
13:34 14.3 °C 10.1 °C 1030.7 hPa ENE 1.4 km/h 3.2 km/h 76% 0.0 mm 339.00 W/m2
13:39 14.6 °C 10.2 °C 1030.7 hPa North 1.4 km/h 3.2 km/h 75% 0.0 mm 429.00 W/m2
13:44 14.6 °C 10.0 °C 1030.7 hPa North 1.4 km/h 8.0 km/h 74% 0.0 mm 436.00 W/m2
13:49 14.5 °C 9.9 °C 1030.7 hPa ENE 1.4 km/h 4.8 km/h 74% 0.0 mm 408.00 W/m2
13:54 14.2 °C 9.8 °C 1030.7 hPa ENE 1.4 km/h 8.0 km/h 75% 0.0 mm 383.00 W/m2
13:59 14.7 °C 10.5 °C 1030.7 hPa Calm   3.2 km/h 76% 0.0 mm 371.00 W/m2
14:04 14.3 °C 9.7 °C 1030.7 hPa ENE 6.4 km/h 6.4 km/h 74% 0.0 mm 374.00 W/m2
14:09 14.4 °C 10.2 °C 1030.7 hPa Calm   4.8 km/h 76% 0.0 mm 469.00 W/m2
14:14 14.5 °C 9.9 °C 1030.7 hPa Calm   8.0 km/h 74% 0.0 mm 438.00 W/m2
14:19 14.4 °C 9.8 °C 1030.7 hPa Calm   4.8 km/h 74% 0.0 mm 360.00 W/m2
14:24 14.5 °C 10.3 °C 1030.7 hPa Calm   4.8 km/h 76% 0.0 mm 348.00 W/m2
14:29 15.2 °C 10.8 °C 1030.7 hPa Calm   4.8 km/h 75% 0.0 mm 1030.00 W/m2
14:34 15.0 °C 10.2 °C 1030.7 hPa Calm   3.2 km/h 73% 0.0 mm 269.00 W/m2
14:39 15.8 °C 10.1 °C 1030.7 hPa Calm   4.8 km/h 69% 0.0 mm 1104.00 W/m2
14:44 15.6 °C 10.4 °C 1030.7 hPa East 3.2 km/h 4.8 km/h 71% 0.0 mm 295.00 W/m2
14:49 15.1 °C 10.1 °C 1030.7 hPa Calm   4.8 km/h 72% 0.0 mm 288.00 W/m2
14:54 15.7 °C 10.5 °C 1030.7 hPa NE 1.4 km/h 6.4 km/h 71% 0.0 mm 355.00 W/m2
14:59 15.1 °C 10.3 °C 1030.7 hPa NNE 1.4 km/h 3.2 km/h 73% 0.0 mm 399.00 W/m2
15:04 15.7 °C 10.2 °C 1030.7 hPa ENE 3.2 km/h 9.7 km/h 70% 0.0 mm 1048.00 W/m2
15:09 15.8 °C 10.8 °C 1030.7 hPa Calm   4.8 km/h 72% 0.0 mm 932.00 W/m2
15:14 16.5 °C 11.0 °C 1030.7 hPa Calm   3.2 km/h 70% 0.0 mm 998.00 W/m2
15:19 16.1 °C 10.2 °C 1030.7 hPa ENE 1.4 km/h 4.8 km/h 68% 0.0 mm 281.00 W/m2
15:24 16.5 °C 10.1 °C 1030.7 hPa Calm   6.4 km/h 66% 0.0 mm 912.00 W/m2
15:29 16.3 °C 10.4 °C 1030.7 hPa NNE 3.2 km/h 6.4 km/h 68% 0.0 mm 584.00 W/m2
15:34 15.7 °C 10.5 °C 1030.7 hPa North 3.2 km/h 3.2 km/h 71% 0.0 mm 374.00 W/m2
15:39 16.6 °C 10.7 °C 1030.7 hPa NE 1.4 km/h 3.2 km/h 68% 0.0 mm 921.00 W/m2
15:44 16.1 °C 10.2 °C 1030.7 hPa ESE 3.2 km/h 4.8 km/h 68% 0.0 mm 798.00 W/m2
15:49 16.2 °C 10.3 °C 1030.7 hPa Calm   11.3 km/h 68% 0.0 mm 796.00 W/m2
15:54 16.2 °C 10.5 °C 1030.7 hPa ENE 3.2 km/h 3.2 km/h 69% 0.0 mm 796.00 W/m2
15:59 16.4 °C 10.7 °C 1030.7 hPa Calm   9.7 km/h 69% 0.0 mm 715.00 W/m2
16:04 16.4 °C 10.5 °C 1030.7 hPa Calm   4.8 km/h 68% 0.0 mm 698.00 W/m2
16:09 16.4 °C 10.3 °C 1030.7 hPa East 3.2 km/h 9.7 km/h 67% 0.0 mm 724.00 W/m2
16:14 16.8 °C 10.9 °C 1030.7 hPa NNE 3.2 km/h 6.4 km/h 68% 0.0 mm 717.00 W/m2
16:19 16.7 °C 10.1 °C 1030.7 hPa ESE 1.4 km/h 8.0 km/h 65% 0.0 mm 710.00 W/m2
16:24 17.0 °C 11.1 °C 1030.7 hPa East 1.4 km/h 4.8 km/h 68% 0.0 mm 689.00 W/m2
16:29 17.1 °C 10.0 °C 1030.7 hPa NNE 1.4 km/h 6.4 km/h 63% 0.0 mm 670.00 W/m2
16:34 16.6 °C 10.9 °C 1030.7 hPa NE 3.2 km/h 4.8 km/h 69% 0.0 mm 675.00 W/m2
16:39 16.5 °C 9.9 °C 1030.7 hPa Calm   6.4 km/h 65% 0.0 mm 684.00 W/m2
16:44 16.3 °C 9.7 °C 1030.7 hPa ESE 1.4 km/h 3.2 km/h 65% 0.0 mm 652.00 W/m2
16:49 16.7 °C 10.3 °C 1030.7 hPa NNE 1.4 km/h 4.8 km/h 66% 0.0 mm 635.00 W/m2
16:54 16.8 °C 10.2 °C 1030.4 hPa East 3.2 km/h 4.8 km/h 65% 0.0 mm 626.00 W/m2
16:59 16.5 °C 9.9 °C 1030.7 hPa Calm   4.8 km/h 65% 0.0 mm 610.00 W/m2
17:04 17.2 °C 10.1 °C 1030.4 hPa East 4.7 km/h 6.4 km/h 63% 0.0 mm 601.00 W/m2
17:09 16.5 °C 10.1 °C 1030.4 hPa East 6.4 km/h 6.4 km/h 66% 0.0 mm 589.00 W/m2
17:14 16.4 °C 10.3 °C 1030.4 hPa NE 3.2 km/h 6.4 km/h 67% 0.0 mm 578.00 W/m2
17:19 16.7 °C 10.1 °C 1030.4 hPa ESE 1.4 km/h 4.8 km/h 65% 0.0 mm 568.00 W/m2
17:24 16.8 °C 10.0 °C 1030.4 hPa NE 1.4 km/h 6.4 km/h 64% 0.0 mm 557.00 W/m2
17:29 16.8 °C 10.4 °C 1030.4 hPa ENE 1.4 km/h 3.2 km/h 66% 0.0 mm 543.00 W/m2
17:34 17.2 °C 10.8 °C 1030.4 hPa ESE 4.7 km/h 4.8 km/h 66% 0.0 mm 533.00 W/m2
17:39 17.2 °C 10.8 °C 1030.4 hPa Calm   1.6 km/h 66% 0.0 mm 524.00 W/m2
17:44 17.5 °C 10.6 °C 1030.4 hPa East 3.2 km/h 4.8 km/h 64% 0.0 mm 512.00 W/m2
17:49 17.3 °C 10.4 °C 1030.4 hPa NNE 1.4 km/h 4.8 km/h 64% 0.0 mm 497.00 W/m2
17:54 17.1 °C 10.0 °C 1030.4 hPa East 1.4 km/h 4.8 km/h 63% 0.0 mm 483.00 W/m2
17:59 17.0 °C 10.4 °C 1030.4 hPa Calm   3.2 km/h 65% 0.0 mm 471.00 W/m2
18:04 17.0 °C 9.9 °C 1030.4 hPa Calm   6.4 km/h 63% 0.0 mm 459.00 W/m2
18:09 17.2 °C 10.6 °C 1030.4 hPa NE 6.4 km/h 6.4 km/h 65% 0.0 mm 452.00 W/m2
18:14 17.1 °C 10.0 °C 1030.0 hPa ESE 3.2 km/h 3.2 km/h 63% 0.0 mm 436.00 W/m2
18:19 17.3 °C 10.7 °C 1030.4 hPa Calm   3.2 km/h 65% 0.0 mm 422.00 W/m2
18:24 16.9 °C 9.6 °C 1030.4 hPa Calm   4.8 km/h 62% 0.0 mm 408.00 W/m2
18:29 16.9 °C 10.0 °C 1030.4 hPa East 3.2 km/h 3.2 km/h 64% 0.0 mm 394.00 W/m2
18:34 16.8 °C 10.2 °C 1030.4 hPa Calm   4.8 km/h 65% 0.0 mm 381.00 W/m2
18:39 16.9 °C 10.0 °C 1030.0 hPa Calm   3.2 km/h 64% 0.0 mm 371.00 W/m2
18:44 16.7 °C 9.9 °C 1030.4 hPa ENE 1.4 km/h 3.2 km/h 64% 0.0 mm 353.00 W/m2
18:49 16.6 °C 9.5 °C 1030.4 hPa East 1.4 km/h 6.4 km/h 63% 0.0 mm 345.00 W/m2
18:54 16.8 °C 10.0 °C 1030.4 hPa Calm   3.2 km/h 64% 0.0 mm 332.00 W/m2
18:59 16.6 °C 9.3 °C 1030.0 hPa Calm   3.2 km/h 62% 0.0 mm 320.00 W/m2
19:04 16.7 °C 9.9 °C 1030.0 hPa Calm   1.6 km/h 64% 0.0 mm 306.00 W/m2
19:09 16.5 °C 9.4 °C 1030.4 hPa East 1.4 km/h 8.0 km/h 63% 0.0 mm 292.00 W/m2
19:14 16.3 °C 9.0 °C 1030.4 hPa Calm   4.8 km/h 62% 0.0 mm 279.00 W/m2
19:19 16.1 °C 9.3 °C 1030.4 hPa Calm   1.6 km/h 64% 0.0 mm 265.00 W/m2
19:24 16.2 °C 9.4 °C 1030.4 hPa Calm   1.6 km/h 64% 0.0 mm 257.00 W/m2
19:29 16.3 °C 9.7 °C 1030.4 hPa Calm   1.6 km/h 65% 0.0 mm 243.00 W/m2
19:34 16.3 °C 9.2 °C 1030.0 hPa Calm   3.2 km/h 63% 0.0 mm 227.00 W/m2
19:39 16.2 °C 9.1 °C 1030.0 hPa East 3.2 km/h 3.2 km/h 63% 0.0 mm 213.00 W/m2
19:44 15.9 °C 8.9 °C 1030.4 hPa Calm   1.6 km/h 63% 0.0 mm 199.00 W/m2
19:49 15.7 °C 8.9 °C 1030.4 hPa NE 3.2 km/h 3.2 km/h 64% 0.0 mm 185.00 W/m2
19:54 15.2 °C 8.7 °C 1030.4 hPa East 3.2 km/h 4.8 km/h 65% 0.0 mm 171.00 W/m2
19:59 14.9 °C 8.6 °C 1030.4 hPa Calm     66% 0.0 mm 142.00 W/m2
20:04 14.6 °C 8.5 °C 1030.4 hPa East 3.2 km/h 6.4 km/h 67% 0.0 mm 49.00 W/m2
20:09 14.4 °C 8.6 °C 1030.4 hPa ESE 1.4 km/h 1.6 km/h 68% 0.0 mm 47.00 W/m2
20:14 14.2 °C 8.6 °C 1030.4 hPa East 1.4 km/h 3.2 km/h 69% 0.0 mm 46.00 W/m2
20:19 14.1 °C 8.5 °C 1030.4 hPa East 3.2 km/h 4.8 km/h 69% 0.0 mm 44.00 W/m2
20:24 13.9 °C 8.5 °C 1030.4 hPa Calm   1.6 km/h 70% 0.0 mm 44.00 W/m2
20:29 13.9 °C 8.5 °C 1030.7 hPa Calm     70% 0.0 mm 42.00 W/m2
20:34 13.8 °C 8.6 °C 1030.7 hPa ESE 1.4 km/h 3.2 km/h 71% 0.0 mm 40.00 W/m2
20:39 13.7 °C 8.5 °C 1030.7 hPa Calm   1.6 km/h 71% 0.0 mm 42.00 W/m2
20:44 13.6 °C 8.4 °C 1030.7 hPa Calm   1.6 km/h 71% 0.0 mm 35.00 W/m2
20:49 13.5 °C 8.6 °C 1030.7 hPa NE 1.4 km/h 6.4 km/h 72% 0.0 mm 33.00 W/m2
20:54 13.4 °C 8.5 °C 1030.7 hPa Calm   3.2 km/h 72% 0.0 mm 32.00 W/m2
20:59 13.3 °C 8.6 °C 1031.0 hPa Calm   1.6 km/h 73% 0.0 mm 30.00 W/m2
21:04 13.3 °C 8.6 °C 1031.0 hPa Calm   3.2 km/h 73% 0.0 mm 32.00 W/m2
21:09 13.3 °C 8.6 °C 1031.0 hPa Calm   3.2 km/h 73% 0.0 mm 26.00 W/m2
21:14 13.2 °C 8.5 °C 1031.0 hPa Calm   1.6 km/h 73% 0.0 mm 23.00 W/m2
21:19 13.2 °C 8.5 °C 1031.0 hPa East 1.4 km/h 1.6 km/h 73% 0.0 mm 21.00 W/m2
21:24 13.0 °C 8.3 °C 1031.0 hPa Calm   1.6 km/h 73% 0.0 mm 18.00 W/m2
21:29 12.8 °C 8.1 °C 1031.0 hPa Calm   1.6 km/h 73% 0.0 mm 16.00 W/m2
Westerhope, Newcastle upon Tyne, UK
Compliments of Weather Underground - 4 mb